Regional Weather Roundup
Issued by NWS Newport/Morehead, NC

Current Version | Previous Version | Text Only | Print | Product List | Glossary Off
Versions: 1 2 3 4 5 6 7 8 9 10 11 12 13 14 15 16 17 18 19 20 21 22 23 24 25 26 27 28 29 30 31 32 33 34 35 36 37 38 39 40 41 42 43 44 45 46 47 48 49 50
631 ASUS42 KMHX 250725 RWRMHX WEATHER ROUNDUP FOR EASTERN NORTH CAROLINA NATIONAL WEATHER SERVICE NEWPORT/MOREHEAD CITY NC 300 AM EDT WED MAY 25 2016 NOTE: "FAIR" INDICATES FEW OR NO CLOUDS BELOW 12,000 FEET WITH NO SIGNIFICANT WEATHER AND/OR OBSTRUCTIONS TO VISIBILITY NCZ015>017-031-032-045>047-102-103-250800- NORTH COAST CITY SKY/WX TMP DP RH WIND PRES REMARKS EDENTON CLEAR N/A N/A N/A SW7 30.15R ELIZABETH CITY CLEAR 62 59 90 SW8 30.13S KITTY HAWK SUNNY 66 59 77 W5 30.13R MANTEO CLEAR 65 62 89 W6 30.15R $$ NCZ045>047-081-094-103-104-250800- CENTRAL COAST CITY SKY/WX TMP DP RH WIND PRES REMARKS FRISCO CLEAR 67 62 84 W8 30.16R $$ NCZ095-097-098-100-101-250800- SOUTHERN COAST CITY SKY/WX TMP DP RH WIND PRES REMARKS BEAUFORT CLEAR 68 62 81 W3 30.17S CEDAR ISLAND NOT AVBL JACKSONVILLE CLEAR 62 57 83 W8 30.17R PINEY ISLAND NOT AVBL WILMINGTON PTCLDY 65 59 81 CALM 30.18R $$ NCZ011>013-027>030-043-044-078>080-089-090>093-098-250800- COASTAL PLAIN CITY SKY/WX TMP DP RH WIND PRES REMARKS AHOSKIE CLEAR 58 55 87 CALM 30.14S CLINTON CLEAR 60 58 91 CALM 30.19R ELIZABETHTOWN CLEAR 63 57 81 SW3 30.18S GOLDSBORO CLEAR 63 61 93 SW6 30.16R GREENVILLE CLEAR 63 59 88 SW5 30.17R HAVELOCK CLEAR 59 56 89 S3 30.18R KENANSVILLE CLEAR 58 56 95 CALM 30.19R KINSTON CLEAR 61 57 87 SW6 30.18R NEW BERN CLEAR 63 56 78 SW6 30.18R RICHLANDS CLEAR 57 56 96 CALM 30.18S ROCKY MOUNT CLEAR 59 55 87 S3 30.16R WASHINGTON CLEAR 62 57 82 SW3 30.16R WHITEVILLE CLEAR 64 57 79 CALM 30.18S $$ AMZ130-135-150-152-154-156-158-170-250-252-270-ANZ085-086-088-633-658-670-250800- MARINE OBSERVATIONS STATION/POSITION TIME TEMP WIND PRES WAVE SWELL AIR SEA DIR/SP/G HT/PER HT/PER (UTC) (F) (DEG/KT/KT) (MB) (FT/S) (FT/S) CHESAPEAKE LIGHT 0700 68 230/ 18/ 19 1019.7 64 E VA BEACH 0650 61 56 240/ 12/ 12 1019.5 3/ 5 3/ 8 DUCK 0700 68 61 230/ 11/ 13 1019.6 2 E DUCK 0611 62 N/A 2/ 9 OREGON INLET 0700 68 70 240/ 9/ 12 1020.5 13E OREGON INLT 0700 63 N/A 3/10 2/10 HATTERAS CG 0700 67 68 230/ 5/ 8 1020.7 DIAMOND BUOY 0650 70 70 250/ 12/ 14 1021.2 3/ 5 2/ 8 CAPE LOOKOUT 0700 69 270/ 8/ 8 1021.3 BEAUFORT LAB 0700 69 68 260/ 3/ 6 1020.8 30 SE NEW RVR IN 0625 73 N/A 3/10 27 SE WRIGHTSVLE 0708 73 72 250/ 12/ 14 1021.4 5 SE WRIGHTSVLE NOT AVBL 225 S CAPE HAT 0650 73 78 10/ 6/ 8 1022.4 4/ 8 3/ 8 41 SE CHARLESTON 0650 76 76 190/ 6/ 6 1021.9 2/ 9 2/ 9 $$

USA.gov is the U.S. government's official web portal to all federal, state and local government web resources and services.